This demonstration page uses our WeatherBlox Daily Observations layout. Learn more.

Left ArrowRight Arrow

36.17497, -115.13722

Hourly Observations for August 4, 2019

Temp ( °F °C ) Dew Point ( °F °C ) Humidity (%) Winds ( mph kmh ) Pressure ( in mb ) Visibility ( mi km ) Precip ( " mm )
12:53 am 00:53 Clear 92 33.3 43 6.1 18 18 Calm 29.82 1010 10 16 0.00 0.00
1:16 am 01:16 Clear with Nearby Thunderstorms 91 32.8 44 6.7 20 20 N 6 9 29.70 1006 10 16 0.00 0.00
1:42 am 01:42 Clear 90 32.2 43 6.1 19 19 N 3 6 29.70 1006 10 16 0.00 0.00
1:53 am 01:53 Clear 90 32.2 42 5.6 19 19 Calm 29.82 1010 10 16 0.00 0.00
2:53 am 02:53 Clear 88 31.1 44 6.7 22 22 Calm 29.82 1010 10 16 0.00 0.00
3:53 am 03:53 Clear 89 31.7 39 3.9 17 17 Calm 29.82 1010 10 16 0.00 0.00
4:53 am 04:53 Clear 85 29.4 44 6.7 24 24 Calm 29.84 1011 10 16 0.00 0.00
5:53 am 05:53 Sunny 85 29.4 42 5.6 22 22 Calm 29.86 1011 10 16 0.00 0.00
6:53 am 06:53 Sunny 84 28.9 42 5.6 23 23 Calm 29.89 1012 10 16 0.00 0.00
7:53 am 07:53 Sunny 87 30.6 44 6.7 22 22 NW 3 6 29.90 1013 10 16 0.00 0.00
8:53 am 08:53 Sunny 92 33.3 37 2.8 14 14 E 7 11 29.90 1013 10 16 0.00 0.00
9:53 am 09:53 Sunny 96 35.6 31 -0.6 10 10 SE 6 9 29.91 1013 10 16 0.00 0.00
10:53 am 10:53 Sunny 99 37.2 31 -0.6 9 9 undefined N/A 29.90 1012 10 16 0.00 0.00
11:53 am 11:53 Sunny 102 38.9 31 -0.6 8 8 ESE 9 15 29.88 1012 10 16 0.00 0.00
12:53 pm 12:53 Sunny 104 40 33 0.6 8 8 ESE 8 13 29.87 1011 10 16 0.00 0.00
1:53 pm 13:53 Sunny 109 42.8 34 1.1 7 7 WSW 12 19 29.84 1011 10 16 0.00 0.00
2:53 pm 14:53 Sunny 108 42.2 38 3.3 9 9 VRB 7 11 29.81 1010 10 16 0.00 0.00
3:53 pm 15:53 Sunny 108 42.2 39 3.9 9 9 SSW 10 17 29.79 1009 10 16 0.00 0.00
4:51 pm 16:51 Sunny 108 42 41 5 10 10 SW 14 22 29.59 1002 10 16 0.00 0.00
4:53 pm 16:53 Sunny 108 42.2 41 5 10 10 SSW 15 24 29.78 1008 10 16 0.00 0.00
5:53 pm 17:53 Sunny 107 41.7 41 5 11 11 SW 16 26 29.77 1008 10 16 0.00 0.00
6:01 pm 18:01 Sunny with Nearby Thunderstorms 107 41.7 40 4.4 10 10 SSW 9 15 29.59 1002 10 16 0.00 0.00
6:23 pm 18:23 Sunny 106 41.1 41 5 11 11 WSW 10 17 29.59 1002 10 16 0.00 0.00
6:53 pm 18:53 Sunny 105 40.6 39 3.9 10 10 WSW 10 17 29.78 1009 10 16 0.00 0.00
7:53 pm 19:53 Clear 103 39.4 36 2.2 10 10 WSW 13 20 29.79 1009 10 16 0.00 0.00
8:53 pm 20:53 Clear 101 38.3 35 1.7 10 10 W 6 9 29.80 1009 10 16 0.00 0.00
9:53 pm 21:53 Clear 99 37.2 35 1.7 11 11 W 9 15 29.82 1010 10 16 0.00 0.00
10:53 pm 22:53 Clear 97 36.1 36 2.2 12 12 WSW 5 7 29.82 1010 10 16 0.00 0.00
11:53 pm 23:53 Clear 95 35 37 2.8 13 13 Calm 29.82 1010 10 16 0.00 0.00

Powered by AerisWeather